Regional Weather Roundup
Issued by NWS

Home | Current Version | Previous Version | Text Only | Print | Product List | Glossary On
Versions: 1 2 3 4 5 6 7 8 9 10 11 12 13 14 15 16 17 18 19 20 21 22 23 24 25 26 27 28 29 30 31 32 33 34 35 36 37 38 39 40 41 42 43 44 45 46 47 48 49 50
000
ASUS42 KKEY 230510
RWRKEY

FLORIDA REGIONAL WEATHER ROUNDUP FOR THE FLORIDA KEYS
NATIONAL WEATHER SERVICE KEY WEST FLORIDA
100 AM EDT SUN JUL 23 2017

...SOUTH FLORIDA AND THE KEYS...

CITY           SKY/WX    TMP DP  RH WIND       PRES   REMARKS
FORT MYERS     MOCLDY    78  78 100 E3        30.05S
SW REGIONAL AP CLOUDY    78  75  90 CALM      30.06S
NAPLES         MOCLDY    79  76  90 E5        30.05F
MIAMI          MOCLDY    85  75  72 SE3       30.06F HX  93
WEST KENDALL   PTCLDY    81  75  82 CALM      30.06F
HOMESTEAD      PTCLDY    80  77  91 E5        30.05F
MARATHON       MOCLDY    84  77  79 E7        30.05F HX  94
BOCA CHICA NAS CLEAR     83  77  82 E10       30.05F HX  92
KEY WEST INTL  CLEAR     85  76  74 SE10      30.05F HX  94

...INTERNATIONAL WEATHER...

CITY           SKY/WX    TMP DP  RH WIND       PRES   REMARKS
NASSAU BAHAMAS PTCLDY    84  75  74 E5        30.10S HX  92
CANCUN MEXICO  MOCLDY    82  79  89 NE3       30.04S HX  93
COZUMEL MEXICO PTCLDY    82  77  83 E6        30.01S HX  91

ADJACENT COASTAL WATERS...

STATION/POSITION TIME  SKY/WX   TEMP    WIND        PRES    WAVE
                                AIR SEA DIR/SP/G            HT/PER
                 (UTC)          (F)     (DEG/KT/KT) (MB)    (FT/S)
PULASKI SHOAL LI 0500            85     110/  7/  7 1017.5F
SAND KEY         0450            84     130/ 13/ 15 1018.1F
LONG KEY         0400            85     120/  9       N/A
MOLASSES REEF    0400            85 86  130/ 10/ 11 1018.4F
FOWEY ROCKS      0500            85 87  100/ 11/ 13 1018.4F
Buoy 42097       0430               87                N/A     1/ 4

$$



USA.gov is the U.S. government's official web portal to all federal, state and local government web resources and services.